This is the latest recevied weather packets stored in our database for station/object KTPF. If no packets are shown the sender has not sent any weather packets the latest 1 day(s).
| Time | Temp. | Humidity | Pressure | Rain* | Wind** | Luminosity | Snow |
|---|---|---|---|---|---|---|---|
| 1778066022 | 20.56° C | 94% | 1015.9 hPa | - | - | - | - |
| 1778064222 | 20.56° C | 88% | 1015.6 hPa | - | - | - | - |
| 1778063620 | 20.56° C | 88% | 1015.6 hPa | - | - | - | - |
| 1778063022 | 21.67° C | 83% | 1015.2 hPa | - | - | - | - |
| 1778061223 | 20.56° C | 88% | 1015.2 hPa | - | - | - | - |
| 1778060745 | 20.56° C | 88% | 1015.2 hPa | - | - | - | - |
| 1778059420 | 21.67° C | 78% | 1015.2 hPa | - | - | - | - |
| 1778058223 | 21.67° C | 78% | 1015.2 hPa | - | - | - | - |
| 1778057623 | 21.67° C | 78% | 1015.2 hPa | - | - | - | - |
| 1778055218 | 21.67° C | 73% | 1015.2 hPa | - | - | - | - |
| 1778054619 | 21.67° C | 73% | 1015.2 hPa | - | - | - | - |
| 1778053421 | 21.67° C | 73% | 1015.6 hPa | - | - | - | - |
| 1778052220 | 21.67° C | 73% | 1015.6 hPa | - | - | - | - |
| 1778051621 | 21.67° C | 73% | 1015.6 hPa | - | - | - | - |
| 1778049818 | 22.78° C | 69% | 1015.9 hPa | - | - | - | - |
| 1778049225 | 22.78° C | 69% | 1015.9 hPa | - | - | - | - |
| 1778048018 | 22.78° C | 69% | 1015.9 hPa | - | - | - | - |
| 1778047423 | 22.78° C | 69% | 1015.9 hPa | - | - | - | - |
| 1778046820 | 22.78° C | 69% | 1015.9 hPa | - | - | - | - |
| 1778044419 | 23.89° C | 60% | 1016.6 hPa | - | - | - | - |
| 1778043218 | 23.89° C | 60% | 1016.6 hPa | - | - | - | - |
| 1778042621 | 23.89° C | 60% | 1016.6 hPa | - | - | - | - |
| 1778042020 | 23.89° C | 60% | 1016.3 hPa | - | - | - | - |
| 1778041420 | 23.89° C | 60% | 1016.3 hPa | - | - | - | - |
| 1778040822 | 25° C | 57% | 1016.3 hPa | - | - | - | - |
* Rain since midnight (hover to see other rain measurements)
** Current wind speed in m/s (hover to see current wind gust speed)